Theta_e
295 297 298 297 297 299 297 296 293 294 295 299 303 308 310 310 309 309 310 311 312 311 310 309 310 312 314 314 311 314 313 316 319 319 320 322 322 320 321 321 322 323 324 325
293 296 297 295 299 300 300 297 297 298 297 303 308 310 309 310 309 309 310 312 313 313 311 310 311 313 315 314 310 314 313 313 319 319 324 322 322 319 322 321 321 321 322 323
290 296 295 291 297 300 300 301 299 295 298 302 303 309 310 309 310 310 310 312 313 314 313 311 311 314 314 313 311 314 313 314 315 315 322 319 320 318 319 316 315 316 316 316
288 292 285 296 302 304 301 301 301 299 301 303 306 307 313 313 311 311 311 313 314 315 314 312 312 313 314 312 312 315 313 315 313 315 322 317 316 317 317 314 314 312 312 311
285 288 293 299 301 300 298 297 301 302 302 304 305 308 308 314 314 313 313 314 315 316 315 312 312 313 314 311 310 314 314 314 313 314 320 318 315 316 315 314 312 312 311 309
289 284 285 296 304 307 304 296 303 303 302 302 309 302 306 313 314 313 314 315 315 316 314 313 313 313 314 310 308 312 314 315 314 313 318 319 315 316 316 314 313 313 311 309
288 284 294 301 305 308 294 294 304 305 305 303 304 307 311 316 315 315 315 314 316 316 313 314 314 314 313 310 308 310 314 316 314 313 316 320 318 318 318 317 315 311 310 308
288 286 288 302 304 297 299 306 307 305 304 305 306 306 307 314 316 316 315 314 317 316 314 314 315 315 314 310 311 311 312 313 314 313 318 322 320 318 319 317 315 313 310 307
290 293 296 302 300 301 299 301 308 307 308 308 307 307 311 311 315 317 316 316 318 317 314 314 315 316 314 314 312 312 311 310 310 314 317 323 321 319 317 318 316 314 313 309
290 298 295 298 300 301 301 300 305 309 308 308 308 308 310 313 315 317 317 317 319 317 314 314 315 316 315 316 315 313 310 309 308 314 320 323 323 322 320 317 316 315 314 311
291 296 295 300 299 300 301 301 301 308 310 309 308 307 311 313 315 318 318 319 319 317 316 316 316 316 316 318 317 314 311 310 310 315 321 321 322 321 320 319 318 315 315 315
288 295 294 295 299 302 300 299 301 302 308 309 312 308 312 314 317 318 319 319 319 319 318 318 317 316 317 319 318 315 313 312 311 316 320 321 318 308 295 301 302 303 303 310
296 300 298 298 301 303 301 301 302 303 308 307 313 315 311 313 314 317 320 320 320 320 320 319 319 317 319 320 319 316 315 314 311 315 319 318 318 316 311 302 296 298 298 300
301 300 296 299 297 301 302 303 303 304 307 308 310 315 317 315 314 317 320 321 322 323 321 321 320 319 321 321 320 317 317 306 312 316 318 318 319 318 316 311 308 303 295 296
300 300 299 301 300 301 303 303 303 304 306 306 307 315 317 317 315 317 320 323 323 324 323 323 322 321 322 321 320 318 318 314 313 314 317 316 318 317 316 312 311 305 299 295
298 298 299 299 299 301 300 303 303 303 306 306 308 316 316 319 320 319 320 322 322 321 324 324 324 324 324 322 320 319 318 309 311 313 314 316 316 315 314 313 310 308 304 303
295 294 296 297 298 298 300 303 305 306 307 307 307 318 317 317 321 320 320 319 320 320 324 326 325 327 326 323 321 320 320 314 309 315 313 315 315 314 314 313 312 309 309 304
300 300 298 299 298 299 300 304 305 307 306 308 308 313 316 316 317 316 315 322 322 322 322 323 326 326 327 325 323 323 321 316 315 316 316 314 313 314 313 312 312 311 310 303
299 301 300 300 300 300 302 306 307 306 307 307 307 308 312 314 316 318 316 320 323 322 322 321 306 317 325 320 318 323 322 318 316 316 316 309 311 314 313 312 310 312 311 306
297 299 304 304 301 301 300 303 306 305 306 306 306 309 308 312 314 315 319 319 320 322 324 322 324 320 316 311 308 321 322 320 317 317 316 314 314 313 313 305 311 310 310 310
297 298 299 303 305 306 302 304 306 305 305 307 307 308 309 311 314 319 320 320 323 320 320 315 323 323 322 314 314 317 318 318 317 317 315 313 313 314 314 312 310 308 307 307
299 299 299 302 303 304 306 306 303 306 306 307 308 309 309 309 318 316 313 315 311 299 315 315 312 301 310 306 321 318 318 319 317 315 314 313 312 313 316 316 315 310 308 305
300 301 302 301 301 303 305 306 307 310 312 311 312 311 310 314 315 316 312 313 311 303 310 305 290 288 296 316 317 317 317 316 315 315 315 316 315 314 314 314 312 310 305 306
301 301 301 302 302 303 303 305 306 305 309 314 313 312 315 312 313 313 311 304 297 307 311 306 298 291 300 318 316 315 314 312 311 310 309 299 310 310 309 308 306 304 305 303
302 303 303 303 302 302 304 306 306 308 312 313 316 316 316 317 315 316 314 312 298 312 316 298 297 296 316 317 317 315 314 313 311 309 308 307 306 304 304 304 304 302 300 299
302 302 303 304 305 306 305 306 307 308 310 311 313 315 315 314 314 313 314 308 313 304 314 313 315 317 317 316 315 314 312 310 310 307 304 303 301 300 299 298 297 297 296 296
303 298 303 304 305 306 305 306 307 308 307 311 310 312 314 315 314 310 304 312 312 310 310 311 311 310 313 313 312 312 311 309 303 306 303 301 300 299 298 298 297 297 296 297
Wind_Speed
29 16 3 6 16 17 17 13 12 8 10 8 10 16 17 15 13 15 15 16 16 14 12 10 8 8 7 7 7 7 7 7 7 6 5 6 6 5 6 5 5 5 6 6
22 28 26 17 13 22 16 8 9 12 9 8 16 8 9 15 17 17 18 18 17 16 14 13 12 11 9 7 8 7 8 7 7 4 6 6 7 6 6 5 4 5 6 6
20 16 18 18 19 18 17 14 14 11 8 8 8 15 17 15 19 20 19 19 18 18 16 14 13 13 11 8 8 9 8 7 7 5 6 7 7 5 7 6 5 6 6 6
7 8 8 7 11 15 22 18 10 5 10 12 13 15 18 20 21 18 19 19 18 16 15 14 12 12 11 9 11 11 8 8 7 6 6 7 7 7 5 5 6 5 6 6
4 10 5 3 5 11 9 6 9 17 10 11 7 8 5 17 20 21 20 19 18 17 17 14 14 13 13 11 12 12 11 9 7 7 6 7 7 8 6 6 4 4 5 7
5 8 7 2 9 10 8 13 10 12 12 10 10 8 7 16 15 15 16 17 17 16 15 15 15 13 14 13 13 14 12 12 8 8 7 8 8 8 5 5 6 5 5 5
5 4 3 16 23 0 11 6 16 13 14 11 9 9 10 19 14 15 17 17 14 16 18 19 15 15 14 14 15 14 14 12 9 8 9 8 7 5 7 6 6 6 6 4
5 1 5 25 8 11 10 16 18 8 10 12 10 8 9 19 18 17 17 12 16 16 15 15 16 16 15 16 15 11 13 13 11 9 9 7 10 5 6 7 7 6 5 4
5 1 6 6 6 4 9 13 18 18 18 14 11 9 12 15 16 17 19 17 17 17 15 13 17 18 17 15 14 13 11 13 12 10 8 10 11 7 5 6 6 5 5 4
9 2 16 9 9 12 16 18 19 20 18 8 12 11 9 13 15 17 16 16 16 15 16 16 15 17 17 15 15 14 12 11 10 11 9 10 9 9 8 6 5 5 5 6
7 9 18 2 15 18 21 21 23 25 21 17 10 10 10 9 14 15 16 15 16 16 16 17 17 16 14 15 16 15 11 10 11 10 12 10 9 9 10 9 10 7 7 8
4 12 6 14 13 15 18 24 24 24 24 22 12 9 8 10 13 14 16 15 15 16 16 16 17 16 15 16 15 15 11 10 10 10 9 10 9 4 9 2 11 11 13 9
5 7 13 16 12 9 12 19 22 21 15 18 15 12 6 8 10 16 17 18 17 18 18 16 17 16 16 17 16 15 14 11 9 10 10 10 9 9 8 3 5 6 9 13
7 12 14 7 7 10 11 15 20 20 11 12 15 11 10 12 8 15 18 19 18 17 16 16 16 17 17 17 16 14 12 16 12 11 10 10 10 10 8 8 7 3 1 4
8 8 12 15 9 9 9 12 18 18 18 18 17 10 13 13 8 15 15 17 16 16 17 16 16 15 16 17 16 14 12 11 12 11 11 11 10 9 9 8 7 5 3 2
6 11 10 11 11 6 8 8 12 15 15 17 20 16 12 10 10 14 10 16 16 14 15 16 16 15 16 17 15 11 12 15 13 11 9 10 9 10 8 8 8 7 6 7
13 2 10 8 7 6 7 8 8 10 12 13 16 15 15 16 9 12 21 8 12 13 15 15 17 14 16 17 17 12 10 10 14 11 11 12 11 10 10 10 9 8 9 9
13 14 6 6 6 6 8 8 6 6 6 11 12 13 17 19 16 18 26 23 9 7 5 15 13 12 15 17 17 12 10 11 11 12 11 10 11 10 10 10 10 9 8 6
14 17 7 7 7 9 8 6 5 3 3 8 10 8 10 14 22 19 30 13 13 12 5 6 13 11 13 13 13 10 10 11 12 10 11 12 9 10 10 10 9 10 9 7
14 14 14 11 12 13 10 5 7 5 3 4 9 10 11 7 10 22 28 3 5 2 8 8 10 9 8 8 10 7 10 11 12 11 9 10 10 10 10 11 11 10 9 8
14 11 12 13 11 9 14 9 8 7 6 4 6 6 8 11 10 17 10 6 3 7 2 12 8 5 5 7 6 5 6 6 7 10 9 8 8 8 8 7 7 7 7 8
13 11 12 10 11 8 5 4 4 8 5 3 4 5 4 8 8 2 4 3 2 10 7 7 4 7 6 7 6 6 5 6 6 5 5 5 5 6 9 10 11 8 7 8
9 11 11 11 11 10 7 6 5 4 4 3 5 5 5 3 4 1 3 4 2 9 7 6 3 3 10 5 4 5 6 5 4 4 5 6 7 7 7 8 6 5 6 6
11 11 13 12 10 9 11 8 8 7 5 6 4 9 4 4 3 5 5 10 8 8 9 8 10 9 6 6 7 6 6 6 5 5 4 5 4 3 4 4 6 5 6 6
13 12 10 7 9 9 10 8 6 8 9 7 5 6 4 5 5 9 5 6 7 8 9 11 13 10 6 6 7 7 5 5 5 5 5 5 5 5 5 5 5 5 6 6
12 11 8 5 2 3 4 3 3 4 7 5 2 3 2 2 3 4 4 6 3 4 4 3 5 6 9 10 8 8 7 6 6 5 5 5 5 5 7 7 7 7 7 7
10 10 10 9 8 6 4 3 2 4 1 5 5 2 6 5 6 5 4 4 2 3 6 5 4 6 7 6 6 6 7 6 6 6 5 5 5 5 5 6 7 7 8 8
Wind_Direction
222 234 236 216 211 188 187 179 170 201 188 216 194 175 180 169 159 157 165 169 174 171 172 169 170 175 180 174 154 161 146 139 162 180 136 140 138 139 131 133 137 143 137 127
221 224 236 247 232 193 189 174 140 176 209 200 189 162 142 170 163 171 176 177 179 178 173 175 175 180 182 170 157 155 151 159 171 175 157 169 136 140 124 134 127 120 127 128
222 217 230 234 233 207 180 174 148 182 201 164 143 174 175 173 176 179 179 179 178 183 182 177 175 176 180 166 151 157 157 166 163 157 142 164 141 142 130 120 110 120 127 122
229 206 208 231 196 196 197 179 179 149 175 166 185 188 189 181 176 184 180 179 185 182 182 179 169 173 171 145 160 161 163 168 168 155 153 132 136 156 128 128 133 127 125 120
196 195 249 234 229 174 152 237 177 180 196 189 157 110 183 188 182 184 184 182 183 183 181 172 169 171 164 156 158 164 171 170 175 160 162 133 132 141 135 125 124 130 132 128
327 139 188 193 318 198 137 223 189 171 185 184 137 144 223 190 194 193 182 181 179 178 173 171 174 163 161 166 162 170 173 177 174 163 160 154 151 144 150 145 147 141 144 141
234 264 66 348 323 227 154 282 323 186 189 166 178 180 188 180 185 189 181 180 175 165 172 181 166 160 167 169 178 174 174 175 171 171 164 164 161 147 142 145 139 145 152 164
324 195 62 348 358 53 309 310 345 272 174 179 185 178 157 178 184 180 182 169 171 174 175 171 168 166 166 177 179 169 165 172 178 178 170 162 161 160 151 136 143 160 157 167
28 296 352 322 64 359 310 335 3 350 314 161 158 165 165 173 181 179 175 177 176 175 169 170 173 173 171 182 170 174 163 172 176 173 165 161 165 163 149 158 147 163 170 184
338 215 338 301 354 339 357 355 351 357 341 286 158 158 161 159 166 172 171 174 173 166 170 171 180 180 181 166 174 171 173 171 165 165 164 166 173 168 169 171 163 160 171 183
280 287 328 134 359 344 346 347 1 358 354 343 331 162 154 156 162 164 168 171 167 173 175 179 177 181 174 173 172 175 170 168 167 169 171 170 173 175 180 194 181 174 185 181
282 290 247 282 322 340 344 354 356 350 339 342 348 296 155 169 169 162 166 170 173 178 176 177 178 179 176 176 175 171 168 168 171 168 169 170 161 136 34 143 189 181 169 168
250 269 256 278 304 327 333 352 347 341 334 334 333 9 316 149 171 168 164 172 176 179 184 177 180 180 181 178 175 173 175 168 165 168 169 165 172 174 175 32 89 199 200 194
195 265 295 295 294 323 342 344 337 325 322 336 343 13 12 333 154 160 170 178 178 178 177 176 178 182 182 177 178 178 172 164 167 172 174 172 176 180 177 182 188 198 100 199
193 219 265 287 303 311 339 352 327 326 331 347 350 5 22 350 284 174 169 174 174 172 176 175 182 186 179 179 176 172 166 173 172 175 176 176 175 176 179 183 190 168 137 113
253 228 219 256 279 312 342 316 302 317 341 355 351 353 359 353 311 4 176 159 156 175 176 179 186 184 177 179 178 171 179 174 171 173 170 176 178 177 180 187 192 189 188 197
341 250 217 238 275 271 246 254 269 311 340 1 348 352 355 350 312 16 358 164 157 175 178 177 191 178 178 180 177 182 177 172 169 169 179 185 184 188 189 188 193 196 203 188
338 292 271 225 280 270 262 241 272 296 334 332 349 357 6 1 347 25 322 265 116 99 166 178 185 174 181 183 182 180 177 171 178 180 182 188 192 189 191 190 196 198 208 189
337 335 247 228 250 262 260 253 224 236 294 333 328 341 29 3 345 328 304 282 134 133 182 133 124 143 171 176 180 173 172 171 183 187 188 185 187 190 191 194 190 204 204 175
320 329 345 310 256 247 257 272 304 274 266 318 320 343 13 359 331 298 272 336 291 153 143 118 102 110 125 149 154 162 174 177 180 187 185 192 190 188 195 193 195 195 194 177
318 311 311 304 304 315 237 227 256 251 257 240 266 331 345 319 264 287 276 221 301 58 93 108 102 98 85 107 111 142 150 157 175 185 188 188 186 189 192 179 185 187 178 179
321 303 287 283 292 288 288 322 283 263 324 305 283 318 287 269 252 224 19 28 338 64 50 44 69 89 102 107 114 121 143 161 166 148 155 166 178 192 205 201 206 200 193 187
296 291 291 274 271 272 264 249 226 165 146 276 298 285 239 224 253 205 342 298 95 100 101 91 43 334 110 100 100 109 115 124 142 165 171 186 189 185 185 189 196 178 171 178
305 292 277 261 251 261 257 228 211 206 233 253 248 291 286 120 34 36 18 251 162 108 92 87 69 38 41 93 100 98 97 102 106 112 112 92 76 68 81 120 127 117 122 138
318 324 305 260 252 248 242 242 223 207 183 185 240 247 287 164 161 185 219 250 182 113 100 106 106 102 99 87 98 98 95 92 87 80 67 74 79 84 79 80 81 90 94 103
339 339 334 330 352 307 280 220 192 206 179 169 147 170 170 223 164 166 203 240 206 140 125 131 105 123 119 134 126 119 117 112 100 87 92 87 87 84 94 97 92 91 96 107
349 347 346 358 3 353 348 16 68 45 42 144 140 141 145 191 165 168 173 200 188 88 100 83 74 92 99 101 97 113 113 106 104 109 101 104 100 101 103 107 111 114 116 122